Tracking 19484 objects as of 20-Jan-2019
HD Live streaming from Space Station
objects crossing your sky now

LEMUR 2 KOBYSZCZE

Track LEMUR 2 KOBYSZCZE now!
10-day predictions
LEMUR 2 KOBYSZCZE is classified as:


NORAD ID: 43732
Int'l Code: 2018-096P
Perigee: 476.9 km
Apogee: 508.1 km
Inclination: 97.5 °
Period: 94.3 minutes
Semi major axis: 6863 km
RCS: Unknown
Launch date: November 29, 2018
Source: United States (US)
Launch site: SRIHARIKOTA (SRI)
aabbcc
Your satellite tracking list
Your tracking list is empty




NASA's NSSDC Master Catalog

Two Line Element Set (TLE):
1 43732U 18096P   19020.48742718  .00001755  00000-0  69032-4 0  9998
2 43732  97.4803  90.5792 0022698 140.0286 344.8480 15.26809356  7971
Source of the keplerian elements: AFSPC